Home   Weather   Lanchow   Past weeks

Flag for China Past Weather in Lanchow, Gansu, China — Yesterday and Last 2 Weeks

Now
50 °F

Clear.


Feels Like: 49 °F
Forecast: 49 / 70 °F
Wind: 3 mph from Northwest

Location: Lanzhou / Zhongchuan

Current Time: Sep 29, 2016 at 1:16:59 AM

Latest Report: Sep 29, 2016 at 12:00 AM


Visibility: 4 mi

Pressure: 30.15 "Hg (25.06 "Hg at 1531m altitude)

Humidity: 94%

Dew Point: 48 °F

Location of LanchowLocation

Past Weather in Lanchow — Graph

°F

Lanchow Temperature Yesterday

Maximum temperature yesterday: 70 °F (at 4:00 PM)
Minimum temperature yesterday: 37 °F (at 7:00 AM)
Average temperature yesterday: 53 °F

High & Low Weather Summary for the Past Weeks

 TemperatureHumidityPressure
High77 °F (Sep 25, 4:00 PM)100% (Sep 15, 4:00 AM)30.39 "Hg (Sep 15, 4:00 AM)
Low37 °F (Sep 28, 7:00 AM)22% (Sep 23, 4:00 PM)29.89 "Hg (Sep 25, 4:00 PM)
Average57 °F67%30.18 "Hg
* Reported Sep 14 12:00 AM — Sep 29 12:00 AM, Lanchow, Weather by CustomWeather, © 2016

Note: Actual official high and low records may vary slightly from our data, if they occured in-between our weather recording intervals... More about our weather records

Advertising

Lanchow Weather History for the Previous 24 Hours

Scroll right to see more
 ConditionsComfort  
Time TempWeatherWind HumidityBarometerVisibility
12:00 AM
Thu, Sep 29
50 °FClear.3 mph94%30.15 "Hg4 mi
11:00 PM
Wed, Sep 28
50 °FClear.6 mph94%30.15 "Hg4 mi
10:00 PM54 °FClear.3 mph88%30.15 "Hg10 mi
9:00 PM57 °FClear.3 mph77%30.15 "Hg10 mi
8:00 PM59 °FClear.3 mph72%30.12 "Hg10 mi
7:00 PM63 °FPassing clouds.3 mph64%30.12 "HgN/A
6:00 PM66 °FPassing clouds.6 mph56%30.12 "HgN/A
5:00 PM70 °FPassing clouds.3 mph40%30.09 "HgN/A
4:00 PM70 °FPassing clouds.6 mph43%30.12 "HgN/A
3:00 PM68 °FPassing clouds.6 mph49%30.15 "HgN/A
2:00 PM66 °FPassing clouds.6 mph52%30.18 "HgN/A
1:00 PM63 °FPassing clouds.6 mph59%30.21 "HgN/A
12:00 PM61 °FPassing clouds.8 mph63%30.24 "HgN/A
11:00 AM57 °FPassing clouds.8 mph72%30.27 "HgN/A
10:00 AM54 °FFog.6 mph82%30.27 "Hg3 mi
9:00 AM48 °FFog.No wind94%30.27 "Hg2 mi
8:00 AM41 °FFog.3 mph100%30.27 "Hg2 mi
7:00 AM37 °FFog.1 mph100%30.27 "Hg2 mi
6:00 AM39 °FFog.1 mph100%30.27 "Hg2 mi
5:00 AM39 °FFog.3 mph100%30.30 "Hg2 mi
4:00 AM41 °FFog.1 mph93%30.30 "Hg1 mi
3:00 AM41 °FFog.3 mph100%30.33 "Hg1 mi
2:00 AM43 °FFog.1 mph93%30.33 "Hg2 mi
1:00 AM43 °FFog.3 mph100%30.36 "Hg2 mi
Weather by CustomWeather, © 2016

See weather overviewHow to use our weather pages